This is the latest recevied weather packets stored in our database for station/object KD4VIF. If no packets are shown the sender has not sent any weather packets the latest 10 day(s).
| Time | Temp. | Humidity | Pressure | Rain* | Wind** | Luminosity | Snow |
|---|---|---|---|---|---|---|---|
| 1777993297 | 21.11° C | 100% | 1016.7 hPa | 0 mm | 0.89 m/s, 208° | - | - |
| 1777992998 | 21.11° C | 100% | 1016.6 hPa | 0 mm | 0 m/s | - | - |
| 1777992097 | 21.11° C | 100% | 1016.7 hPa | 0 mm | 0.45 m/s, 302° | - | - |
| 1777991797 | 20° C | 100% | 1016.6 hPa | 0 mm | 0.45 m/s, 250° | - | - |
| 1777991498 | 20° C | 100% | 1016.6 hPa | 0 mm | 0 m/s | - | - |
| 1777991197 | 20° C | 100% | 1016.7 hPa | 0 mm | 1.34 m/s, 306° | - | - |
| 1777990898 | 20° C | 100% | 1016.6 hPa | 0 mm | 0.45 m/s, 288° | - | - |
| 1777990692 | 17.22° C | 100% | 1016.9 hPa | 0 mm | 0 m/s | - | - |
| 1777990607 | 17.22° C | 100% | 1016.9 hPa | 0 mm | 0 m/s | - | - |
| 1777989398 | 18.33° C | 100% | 1016.8 hPa | 0 mm | 0 m/s | - | - |
| 1777989097 | 17.78° C | 100% | 1016.8 hPa | 0 mm | 0 m/s | - | - |
| 1777988806 | 16.67° C | 100% | 1016.7 hPa | 0 mm | 0.45 m/s, 326° | - | - |
| 1777988497 | 17.22° C | 100% | 1016.8 hPa | 0 mm | 0 m/s | - | - |
| 1777988301 | 17.22° C | 100% | 1016.9 hPa | 0 mm | 0 m/s | - | - |
| 1777988198 | 17.22° C | 100% | 1016.9 hPa | 0 mm | 0 m/s | - | - |
| 1777988171 | 17.22° C | 100% | 1016.8 hPa | 0 mm | 0 m/s | - | - |
| 1777987897 | 17.22° C | 100% | 1016.8 hPa | 0 mm | 0 m/s | - | - |
| 1777987297 | 16.67° C | 100% | 1016.7 hPa | 0 mm | 0.45 m/s, 326° | - | - |
| 1777986397 | 15° C | 100% | 1016.7 hPa | 0 mm | 0 m/s | - | - |
| 1777985797 | 13.89° C | 100% | 1016.8 hPa | 0 mm | 0 m/s | - | - |
| 1777985497 | 13.89° C | 100% | 1016.9 hPa | 0 mm | 0 m/s | - | - |
| 1777984897 | 13.33° C | 100% | 1016.8 hPa | 0 mm | 0 m/s | - | - |
| 1777984633 | 12.78° C | 100% | 1016.8 hPa | 0 mm | 0 m/s | - | - |
| 1777984597 | 12.78° C | 100% | 1016.8 hPa | 0 mm | 0 m/s | - | - |
| 1777983998 | 12.78° C | 100% | 1016.7 hPa | 0 mm | 0 m/s | - | - |
* Rain latest hour (hover to see other rain measurements)
** Current wind speed in m/s (hover to see current wind gust speed)